[[{"header":{"parameterUnit":"m.s-1","parameterCategory":1,"la1":30.2991,"la2":30.254,"lo1":-89.0895,"lo2":-89.0444,"dy":0.0017,"dx":0.0017,"nx":28,"ny":28,"refTime":"2024-03-17T09:00:00:Z","depth":0,"parameterNumber":2,"parameterNumberName":"U-component_of_WINDS"},"data":[0,0,0,0,0,0,0,0,0,0,0,0,0,0,0,0,0,0,0,0,0,0,0,0,0,0,0,0,0,0,0,0,0,0,0,0,0,0,0,0,0,0,0,0,0,0,0,0,0,0,0,0,0,0,0,0,0,0,0.4225,0.4226,0,0.4285,0.4285,0.4286,0.429,0.4289,0.4289,0.4288,0.4348,0.4351,0.4353,0,0,0,0,0,0,0,0,0,0,0,0,0,0.4115,0.4117,0.4225,0.4226,0.4227,0.4284,0.4285,0.4286,0.429,0.4289,0.4288,0.4288,0.4348,0.435,0.4353,0,0,0,0,0,0,0,0,0,0,0,0,0,0.4168,0.4118,0.4225,0.4236,0.4237,0.4284,0.4285,0.4286,0.429,0.4289,0.4288,0.4287,0.4347,0.435,0.4353,0.4394,0,0,0.4364,0.4365,0,0,0,0,0,0,0,0,0.4165,0.4172,0.4233,0.4235,0.4237,0.4279,0.4269,0.4322,0.429,0.427,0.4288,0.4287,0.4326,0.4331,0.4344,0.4397,0.4399,0.4364,0.4366,0.4367,0.4368,0,0,0,0,0,0,0,0.4161,0.4169,0.4249,0.4234,0.4236,0.4237,0.4244,0.4279,0.4303,0.4272,0.4272,0.4279,0.4327,0.4341,0.4346,0.44,0.4364,0.4367,0.4369,0.437,0.4488,0.4489,0,0,0,0,0,0,0.4155,0.4166,0.4247,0.4251,0.4198,0.424,0.4247,0.4266,0.4303,0.4307,0.428,0.4279,0.4336,0.4342,0.4348,0.4398,0.4367,0.437,0.4372,0.4487,0.4489,0.449,0,0,0,0,0,0,0.4153,0.4163,0.4244,0.4208,0.4219,0.4243,0.4265,0.4268,0.4282,0.4309,0.4313,0.429,0.4335,0.4343,0.4382,0.44,0.4372,0.4375,0.4486,0.4488,0.4489,0.4497,0,0,0,0,0,0,0.415,0.4162,0.4177,0.4209,0.4221,0.4278,0.4266,0.427,0.4288,0.4288,0.4319,0.4324,0.4335,0.4377,0.4386,0.4404,0.4378,0.4484,0.4487,0.4489,0.4495,0.4499,0.4502,0,0,0,0,0,0.4146,0.4177,0.4178,0.4188,0.4241,0.4279,0.4286,0.4298,0.4289,0.4305,0.4322,0.4323,0.4396,0.4381,0.4391,0.441,0.4483,0.4486,0.4488,0.4494,0.4498,0.4502,0,0,0,0,0,0,0.4147,0.4182,0.4183,0.4226,0.4249,0.428,0.43,0.4303,0.4329,0.4328,0.4342,0.4349,0.4388,0.4403,0.4385,0.4451,0.4439,0.4443,0.444,0.4444,0.4447,0.4443,0.438,0,0,0,0,0,0.4153,0.4181,0.4209,0.4244,0.4256,0.4276,0.4293,0.43,0.4326,0.4336,0.4355,0.438,0.4408,0.4427,0.4455,0.4497,0.4504,0.4515,0.4519,0.4521,0.4525,0.4548,0.4554,0.4498,0.4498,0.4498,0,0,0.4164,0.4186,0.4203,0.4245,0.4264,0.4293,0.4284,0.4315,0.4336,0.434,0.4378,0.4394,0.4422,0.4463,0.4482,0.4477,0.4542,0.4524,0.4526,0.4529,0.4552,0.4557,0.4561,0.45,0.45,0.4499,0,0,0.4199,0.4218,0.425,0.4269,0.4298,0.4312,0.4319,0.4349,0.4359,0.4398,0.4401,0.4427,0.4476,0.4496,0.4512,0.4554,0.4556,0.4563,0.458,0.4603,0.4607,0.4611,0.4626,0.4631,0.4567,0.4567,0.4567,0,0.4209,0.4252,0.4265,0.4296,0.4314,0.4319,0.435,0.4369,0.4405,0.4418,0.4411,0.4473,0.4492,0.4538,0.4548,0.4561,0.457,0.456,0.4605,0.4609,0.4613,0.4628,0.4633,0.4567,0.4567,0.4567,0.4567,0,0.4263,0.4293,0.4315,0.435,0.4371,0.4402,0.4419,0.4438,0.4444,0.4458,0.4497,0.452,0.4553,0.4564,0.457,0.461,0.4606,0.4602,0.459,0.4619,0.4633,0.4639,0.4568,0.4568,0.4568,0.4568,0,0,0.4301,0.4343,0.4351,0.4367,0.4399,0.4423,0.4454,0.4486,0.4502,0.4527,0.4553,0.4595,0.4591,0.461,0.4618,0.4638,0.467,0.4632,0.4633,0.4638,0.4716,0.4719,0.4725,0.4671,0.4672,0.4673,0.4713,0,0.434,0.4395,0.4407,0.4455,0.4482,0.4487,0.4514,0.4537,0.4551,0.4576,0.4591,0.462,0.4614,0.4625,0.4645,0.4662,0.4686,0.4659,0.4695,0.4697,0.4688,0.4732,0.4735,0.4772,0.4719,0.472,0.4721,0,0.4392,0.4418,0.4469,0.4498,0.451,0.4534,0.4564,0.4588,0.4614,0.4622,0.4643,0.4649,0.4682,0.4668,0.4713,0.4694,0.471,0.472,0.4722,0.4726,0.471,0.4737,0.4784,0.479,0.4729,0.4729,0.4728,0,0.4414,0.4463,0.4499,0.4512,0.4547,0.4564,0.4579,0.4604,0.4622,0.4648,0.466,0.469,0.4706,0.4729,0.4743,0.4732,0.4786,0.4774,0.4794,0.4794,0.4806,0.4805,0.4856,0.4816,0.4815,0.4815,0.4815,0,0.4456,0.4487,0.4509,0.4532,0.4566,0.458,0.4613,0.4628,0.465,0.4676,0.4682,0.4705,0.4722,0.4748,0.4759,0.4794,0.4802,0.4809,0.4812,0.4809,0.4808,0.4819,0.4817,0.4817,0.4816,0.4816,0.4816,0,0.4487,0.4503,0.4543,0.4573,0.4581,0.4605,0.463,0.4652,0.4665,0.4697,0.4705,0.4727,0.4758,0.4774,0.4812,0.4819,0.4859,0.486,0.485,0.4851,0.4871,0.4869,0.4931,0.494,0.4894,0.4894,0.4895,0,0.4513,0.4536,0.4568,0.4585,0.4601,0.4629,0.4647,0.4662,0.4681,0.4712,0.473,0.4761,0.4787,0.4836,0.4855,0.4884,0.4886,0.4906,0.4891,0.4887,0.4886,0.4885,0.4887,0.4909,0.4909,0.4909,0.491,0,0.4556,0.4563,0.459,0.4619,0.4641,0.4665,0.4689,0.4703,0.4721,0.4742,0.4774,0.4794,0.4833,0.4864,0.4894,0.491,0.4913,0.4914,0.4921,0.4918,0.4911,0.4915,0.4858,0.4913,0.4913,0.4912,0.4912,0.4912,0.4585,0.4607,0.4632,0.4662,0.4681,0.4703,0.4725,0.4741,0.4768,0.4801,0.4807,0.4841,0.4866,0.4908,0.4924,0.495,0.4946,0.4955,0.4958,0.496,0.496,0.4907,0.4956,0.4956,0.4956,0.4956,0.4956,0,0.4629,0.4646,0.4673,0.4706,0.4729,0.473,0.4756,0.4775,0.4804,0.4828,0.4853,0.4889,0.4919,0.494,0.497,0.4987,0.4989,0.4995,0.4994,0.4997,0.4962,0.4954,0.4993,0.4993,0.4993,0.4993,0.4993,0.4993,0.4655,0.4691,0.4701,0.4746,0.4762,0.4795,0.481,0.483,0.4849,0.4889,0.4914,0.4927,0.495,0.4982,0.5009,0.5015,0.5026,0.5031,0.5037,0.5004,0.5,0.4996,0.4988,0.5033,0.5033,0.5069,0.507,0.507]},{"header":{"parameterUnit":"m.s-1","parameterCategory":1,"la1":30.2991,"la2":30.254,"lo1":-89.0895,"lo2":-89.0444,"dy":0.0017,"dx":0.0017,"nx":28,"ny":28,"refTime":"2024-03-17T09:00:00:Z","depth":0,"parameterNumber":3,"parameterNumberName":"V-component_of_WINDS"},"data":[0,0,0,0,0,0,0,0,0,0,0,0,0,0,0,0,0,0,0,0,0,0,0,0,0,0,0,0,0,0,0,0,0,0,0,0,0,0,0,0,0,0,0,0,0,0,0,0,0,0,0,0,0,0,0,0,0,0,0.3954,0.3954,0,0.3921,0.392,0.392,0.3873,0.3872,0.3871,0.3871,0.3838,0.3838,0.3838,0,0,0,0,0,0,0,0,0,0,0,0,0,0.3978,0.3978,0.3954,0.3954,0.3953,0.3921,0.392,0.392,0.3873,0.3872,0.3871,0.387,0.3838,0.3838,0.3838,0,0,0,0,0,0,0,0,0,0,0,0,0,0.3959,0.3978,0.3954,0.3926,0.3923,0.3921,0.392,0.392,0.3873,0.3872,0.3871,0.387,0.3838,0.3838,0.3837,0.386,0,0,0.3837,0.3837,0,0,0,0,0,0,0,0,0.396,0.3958,0.3931,0.3928,0.3925,0.39,0.3917,0.39,0.3874,0.3892,0.3871,0.3869,0.3859,0.3857,0.3854,0.3859,0.3857,0.3837,0.3837,0.3837,0.3837,0,0,0,0,0,0,0,0.3961,0.3959,0.3941,0.393,0.3927,0.3915,0.3911,0.3913,0.3883,0.3891,0.3887,0.3884,0.3858,0.3854,0.3853,0.3857,0.3837,0.3837,0.3837,0.3837,0.3878,0.3879,0,0,0,0,0,0,0.3967,0.396,0.3942,0.394,0.394,0.3916,0.3911,0.3909,0.3883,0.3878,0.3885,0.3882,0.3855,0.3853,0.3851,0.3876,0.3837,0.3837,0.3836,0.3877,0.3879,0.388,0,0,0,0,0,0,0.3967,0.3965,0.3943,0.3949,0.3945,0.3917,0.3915,0.3909,0.3905,0.3879,0.3873,0.3887,0.3854,0.3852,0.3858,0.3875,0.3836,0.3836,0.3876,0.3878,0.3879,0.3927,0,0,0,0,0,0,0.3968,0.3966,0.3974,0.395,0.3945,0.3951,0.3916,0.3909,0.3905,0.3901,0.3879,0.3874,0.3853,0.3859,0.3858,0.3874,0.3836,0.3874,0.3876,0.3879,0.3924,0.393,0.3935,0,0,0,0,0,0.3969,0.3989,0.3975,0.3973,0.3955,0.3952,0.3949,0.3924,0.3907,0.3915,0.3897,0.3875,0.3873,0.386,0.3859,0.3874,0.3873,0.3876,0.3878,0.3921,0.3929,0.3935,0,0,0,0,0,0,0.4018,0.3986,0.3969,0.3982,0.397,0.3944,0.3954,0.3933,0.3926,0.3923,0.3892,0.3887,0.3898,0.3886,0.3873,0.3895,0.3869,0.3872,0.3902,0.3909,0.3915,0.3918,0.3836,0,0,0,0,0,0.4029,0.4029,0.4001,0.4016,0.401,0.3983,0.3981,0.3962,0.3949,0.3943,0.3926,0.3914,0.3911,0.3909,0.3904,0.3921,0.3916,0.3931,0.3937,0.3942,0.3945,0.3953,0.396,0.3889,0.3889,0.3889,0,0,0.4055,0.4037,0.4039,0.4025,0.4013,0.4014,0.3979,0.3981,0.3982,0.3944,0.3949,0.3936,0.392,0.3932,0.3936,0.3923,0.3963,0.3946,0.395,0.395,0.3957,0.3963,0.3969,0.3891,0.389,0.389,0,0,0.4101,0.4088,0.4098,0.4087,0.4069,0.4051,0.4053,0.403,0.402,0.4024,0.3996,0.3995,0.399,0.398,0.3974,0.4015,0.3994,0.4014,0.4046,0.4054,0.4059,0.4064,0.4079,0.4085,0.4017,0.4017,0.4017,0,0.4135,0.4134,0.4106,0.411,0.4104,0.4069,0.4079,0.4069,0.4052,0.4049,0.4034,0.4025,0.4012,0.4021,0.4031,0.4027,0.4029,0.4017,0.4061,0.4065,0.4069,0.4083,0.4089,0.402,0.4019,0.4019,0.4019,0,0.4177,0.4177,0.4187,0.417,0.4165,0.4173,0.4145,0.4144,0.4125,0.4108,0.4113,0.4096,0.4087,0.4087,0.407,0.4094,0.4086,0.4066,0.404,0.4079,0.4092,0.4097,0.4023,0.4022,0.4022,0.4021,0,0,0.4254,0.422,0.4225,0.4216,0.4194,0.4193,0.4198,0.4189,0.4189,0.4177,0.4181,0.4176,0.4157,0.4151,0.4131,0.4138,0.4172,0.4117,0.4117,0.4129,0.4198,0.4214,0.422,0.4157,0.4158,0.4159,0.4199,0,0.4297,0.4304,0.4277,0.4291,0.4291,0.4256,0.4261,0.4248,0.4232,0.4229,0.4211,0.4209,0.4184,0.418,0.4185,0.4167,0.4186,0.4163,0.4161,0.4161,0.4167,0.4227,0.4244,0.4282,0.4204,0.4205,0.4205,0,0.4348,0.4338,0.4352,0.4328,0.4327,0.4331,0.432,0.4318,0.4302,0.429,0.4282,0.4259,0.4262,0.4236,0.424,0.4226,0.4223,0.4214,0.4215,0.4214,0.4187,0.4229,0.4294,0.43,0.4213,0.4212,0.4212,0,0.4404,0.4394,0.4401,0.4395,0.4367,0.4371,0.4359,0.4342,0.4338,0.4328,0.4325,0.4316,0.4311,0.4305,0.428,0.4263,0.4287,0.4259,0.4277,0.4278,0.4285,0.4285,0.4352,0.4281,0.4281,0.4281,0.4281,0,0.4455,0.4465,0.4426,0.443,0.444,0.4409,0.442,0.4405,0.4389,0.439,0.436,0.4361,0.4328,0.4325,0.4306,0.4312,0.431,0.4301,0.4296,0.4304,0.4306,0.4303,0.43,0.4283,0.4282,0.4282,0.4282,0,0.452,0.4494,0.4499,0.4472,0.4465,0.4473,0.445,0.4453,0.4434,0.4436,0.4434,0.4406,0.4401,0.4375,0.4365,0.4352,0.4366,0.4354,0.4371,0.4368,0.4388,0.4387,0.4456,0.4464,0.4388,0.4389,0.4389,0,0.4554,0.4561,0.4534,0.4532,0.4522,0.4519,0.4515,0.4484,0.4481,0.4462,0.4467,0.446,0.4453,0.4448,0.4426,0.4418,0.4407,0.4432,0.4406,0.4414,0.4408,0.4409,0.4409,0.4438,0.4439,0.444,0.444,0,0.4619,0.4606,0.46,0.459,0.4585,0.4575,0.4564,0.4564,0.453,0.4528,0.4523,0.4517,0.4506,0.4499,0.4487,0.4475,0.4453,0.4448,0.4452,0.4462,0.4471,0.4467,0.4387,0.4447,0.4447,0.4446,0.4446,0.4445,0.467,0.4675,0.4656,0.4651,0.4639,0.4628,0.463,0.4611,0.4606,0.4594,0.4576,0.4574,0.4557,0.4538,0.4528,0.4525,0.4512,0.4518,0.4519,0.4521,0.4526,0.4471,0.4523,0.4523,0.4522,0.4522,0.4522,0,0.4734,0.472,0.4715,0.47,0.4696,0.4673,0.4659,0.4657,0.4655,0.4641,0.4634,0.4628,0.4621,0.4598,0.4589,0.4591,0.4581,0.459,0.459,0.4588,0.4538,0.4536,0.4599,0.4599,0.4599,0.4599,0.4599,0.4599,0.4767,0.4773,0.4757,0.4757,0.4742,0.4739,0.4733,0.4724,0.4712,0.4706,0.47,0.4685,0.4667,0.4657,0.4649,0.4643,0.4641,0.4654,0.4645,0.4599,0.4591,0.4584,0.4582,0.4654,0.4654,0.4695,0.4695,0.4695]}]]